Location: Grantsboro
(35.1404°N, 76.8424°W)
Time: 21:16:05
(UTC+00:00)

Cosmos 1758 - Pass Details

Date: 18 January 2020
Orbit: 540 x 562 km, 82.5° (Epoch: 25 February)

Event Time Altitude Azimuth Distance (km) Brightness Sun altitude
Rises 09:54:30 0° 172° (S) 2,716 7.0 -28.3°
Reaches altitude 10° 09:56:43 10° 166° (SSE) 1,822 6.2 -27.9°
Maximum altitude 10:00:33 45° 93° (E) 752 4.3 -27.1°
Drops below altitude 10° 10:04:23 10° 20° (NNE) 1,823 6.1 -26.3°
Sets 10:06:36 0° 14° (NNE) 2,717 6.9 -25.8°
